AirNav   Air Wisconsin Up To $57,000 Bonus
 
 1087 users online  

KTPF Peter O Knight Airport
Tampa, Florida, USA

GOING TO TAMPA?


FAA INFORMATION EFFECTIVE 15 JULY 2021

Location

FAA Identifier: TPF
Lat/Long: 27-54-55.6000N 082-26-57.8000W
27-54.926667N 082-26.963333W
27.9154444,-82.4493889
(estimated)
Elevation: 7.4 ft. / 2.3 m (surveyed)
Variation: 05W (2010)
From city: 3 miles S of TAMPA, FL
Time zone: UTC -4 (UTC -5 during Standard Time)
Zip code: 33606

Airport Operations

Airport use: Open to the public
Activation date: 04/1940
Control tower: no
ARTCC: MIAMI CENTER
FSS: SAINT PETERSBURG FLIGHT SERVICE STATION
NOTAMs facility: TPF (NOTAM-D service available)
Attendance: 0700-1900
Pattern altitude: 907.4 ft. MSL
Wind indicator: lighted
Segmented circle: yes
Lights: ACTVT REIL RWY 22; VASI RWY 04; PAPI RWY 36; MIRL RWY 04/22 & 18/36 - CTAF.
Beacon: white-green (lighted land airport)
Operates sunset to sunrise.

Airport Communications

CTAF/UNICOM: 122.725
WX AWOS-3: 118.925 (813-251-6824)
TAMPA APPROACH: 119.9
TAMPA DEPARTURE: 119.9
CLEARANCE DELIVERY: 119.8 ;IFR
WX ASOS at TPA (6 nm NW): 126.45 (813-873-7228)
WX AWOS-3 at VDF (8 nm NE): 121.125 (813-630-0924)
WX ASOS at PIE (13 nm W): 134.5 (727-531-3456)
WX ASOS at SPG (13 nm SW): 118.875 (727-821-4334)
WX AWOS-3 at PCM (16 nm E): 120.025 (813-764-8259)
WX AWOS-3P at CLW (17 nm W): 119.225 (727-449-2184)

Nearby radio navigation aids

VOR radial/distance  VOR name  Freq  Var
PIEr093/12.5ST PETERSBURG VORTAC116.4005W
LALr259/23.5LAKELAND VORTAC116.0001E
SRQr016/31.1SARASOTA VOR/DME117.0005W

 
NDB name  Hdg/Dist  Freq  Var  ID
COSME164/11.036805WTP - .--.
CAPOK115/14.336005WPI .--. ..

Airport Services

Fuel available: 100LL JET-A
Parking: hangars and tiedowns
Airframe service: MAJOR
Powerplant service: MAJOR
Bottled oxygen: LOW
Bulk oxygen: HIGH/LOW

Runway Information

Runway 4/22

Dimensions: 3583 x 100 ft. / 1092 x 30 m
Surface: asphalt, in good condition
Weight bearing capacity: 
PCN 26 /F/A/X/T
Single wheel: 75.0
Double wheel: 108.0
Runway edge lights: medium intensity
RUNWAY 4  RUNWAY 22
Latitude: 27-54.653500N27-55.126017N
Longitude: 082-27.244167W082-26.844000W
Elevation: 6.9 ft.6.0 ft.
Traffic pattern: rightleft
Runway heading: 042 magnetic, 037 true222 magnetic, 217 true
Displaced threshold: 179 ft.180 ft.
Declared distances: TORA:3403 TODA:3403 ASDA:3403 LDA:3224TORA:3404 TODA:3404 ASDA:3404 LDA:3403
Markings: nonprecision, in good conditionnonprecision, in good condition
Visual slope indicator: 4-box VASI on left (3.00 degrees glide path)
Runway end identifier lights: yes
Touchdown point: yes, no lightsyes, no lights
Obstructions: 6 ft. fence, 200 ft. from runway, 222 ft. right of centerline, 1:1 slope to clear
6 FT FENCE 200 FT FM RWY END 222 FT R.
30 ft. boat, 415 ft. from runway, 170 ft. right of centerline, 7:1 slope to clear
APCH RATIO 25:1 TO DTHR.

Runway 18/36

Dimensions: 2687 x 75 ft. / 819 x 23 m
Surface: asphalt, in fair condition
Weight bearing capacity: 
PCN 8 /F/B/X/T
Single wheel: 27.0
Double wheel: 42.0
Runway edge lights: medium intensity
RUNWAY 18  RUNWAY 36
Latitude: 27-55.197585N27-54.757473N
Longitude: 082-26.887140W082-26.826555W
Elevation: 5.9 ft.6.3 ft.
Traffic pattern: leftright
Runway heading: 178 magnetic, 173 true358 magnetic, 353 true
Displaced threshold: 203 ft.201 ft.
Declared distances: TORA:2687 TODA:2687 ASDA:2574 LDA:2371TORA:2487 TODA:2487 ASDA:2512 LDA:2311
Markings: nonprecision, in good conditionnonprecision, in good condition
Visual slope indicator: 2-light PAPI on right (3.00 degrees glide path)
Touchdown point: yes, no lightsyes, no lights
Obstructions: 6 ft. fence, 200 ft. from runway, 93 ft. right of centerline, 1:1 slope to clear
6 FT FENCE 200 FT FM RWY END 93 FT R.
5 ft. fence, 200 ft. from runway, 150 ft. left of centerline, 1:1 slope to clear
5 FT FENCE 200 FT FM RWY END 150 FT L.

Airport Ownership and Management from official FAA records

Ownership: Publicly-owned
Owner: HILLSBOROUGH COUNTY AVIATION AUTH
PO BOX 22287
TAMPA, FL 33622
Phone (813) 870-8776
813-251-1752
Manager: BRETT FAY
PO BOX 22287
TAMPA, FL 33606
Phone (813) 870-8735

Airport Operational Statistics

Aircraft based on the field: 93
Single engine airplanes: 82
Multi engine airplanes: 5
Helicopters: 6
    
Aircraft operations: avg 147/day *
54% transient general aviation
39% local general aviation
7% air taxi
* for 12-month period ending 13 December 2017

Additional Remarks

A30A-22 SHIP CHANNEL APCH END.
A30A-18 SHIP CHANNEL APCH END.
OCEAN VESSEL SHIP CHANNEL EAST.
GULLS ON AND INVOF ARPT.
TWY E CLSD TO ACFT WITH WING SPANS IN EXCESS OF 40 FT.
ALERT: MACDILL AFB LCTD 4 MILES SW & HOSP HEL TFC 1 NM NORTH USING UNICOM 122.825.
FOR CD CTC TAMPA APCH AT 813-878-2528

Instrument Procedures

NOTE: All procedures below are presented as PDF files. If you need a reader for these files, you should download the free Adobe Reader.

NOT FOR NAVIGATION. Please procure official charts for flight.
FAA instrument procedures published for use from 15 July 2021 at 0901Z to 12 August 2021 at 0900z.

 
STARs - Standard Terminal Arrivals
BRDGE EIGHT **CHANGED**   download (254KB)
DARBS THREE   download (188KB)
LZARD SIX **CHANGED**   download (260KB)
 
IAPs - Instrument Approach Procedures
RNAV (GPS) RWY 22   download (238KB)
RNAV (GPS) RWY 36   download (247KB)
NOTE: Special Alternate Minimums apply   download (22KB)
NOTE: Special Take-Off Minimums/Departure Procedures apply   download (309KB)

Other nearby airports with instrument procedures:

KMCF - MacDill Air Force Base (5 nm SW)
KTPA - Tampa International Airport (6 nm NW)
KVDF - Tampa Executive Airport (8 nm NE)
KPIE - St Pete-Clearwater International Airport (13 nm W)
KSPG - Albert Whitted Airport (13 nm SW)
KPCM - Plant City Airport (16 nm E)
KCLW - Clearwater Air Park (17 nm W)
 
Loc | Ops | Rwys | IFR | FBO | Links
Com | Nav | Svcs | Stats | Notes


 
Area around KTPF (Peter O Knight Airport)
 
Road maps at: MapQuest Bing Google
 
Aerial photo
WARNING: Photo may not be current or correct
Aerial photo of KTPF (Peter O Knight Airport)
Photo courtesy of PhotosFromTheAir.com
Photo taken 27-Feb-2012
looking north.

Do you have a better or more recent aerial photo of Peter O Knight Airport that you would like to share? If so, please send us your photo.

 
Sectional chart

 
Airport distance calculator
Flying to Peter O Knight Airport? Find the distance to fly.

From to KTPF

Sunrise and sunset
Times for 05-Aug-2021
 Local
(UTC-4)
 Zulu
(UTC)
Morning civil twilight06:3110:31
Sunrise06:5610:56
Sunset20:1600:16
Evening civil twilight20:4100:41

Current date and time
Zulu (UTC)  06-Aug-2021 00:10:45
Local (UTC-4)  05-Aug-2021 20:10:45
 
METAR
KTPF 052355Z AUTO 24004KT 10SM SCT021 SCT025 BKN110 27/22 A3007 RMK AO2
KMCF 
5nm SW 
052356Z AUTO 26005KT 10SM FEW060 FEW190 FEW210 26/20 A3003 RMK AO2 SLP172 60001 T02620200 10287 20237 53002 FZRANO $
KTPA 
5nm NW 
052353Z 22006KT 10SM FEW018 SCT050 BKN210 OVC300 27/24 A3007 RMK AO2 RAB36E49 SLP181 P0000 60001 T02670239 10294 20256 53006
KVDF 
8nm NE 
052355Z AUTO 20005KT 10SM CLR 27/22 A3008 RMK AO2
KPIE 
12nm W 
052353Z 18005KT 10SM BKN090 26/24 A3005 RMK AO2 RAB02E18 SLP177 P0002 60012 T02560244 10283 20244 53002
KSPG 
13nm SW 
052353Z 23007KT 10SM CLR 26/24 A3004 RMK AO2 RAE00 SLP171 P0000 60011 T02610244 10283 20244 55001
KPCM 
16nm E 
052355Z AUTO 20004KT 10SM CLR 27/22 A3009 RMK AO2
KCLW 
17nm W 
052355Z AUTO 00000KT 10SM SCT021 25/23 A3006 RMK AO2
TAF
KMCF 
5nm SW 
051930Z 0519/0623 25010G15KT 9999 -SHRA VCTS FEW025CB BKN060 BKN160 QNH2999INS TEMPO 0520/0523 26015G25KT 3200 +TSRA BKN025CB OVC060 BECMG 0523/0600 23009KT 9999 NSW SCT030 SCT090 QNH3001INS BECMG 0606/0607 20006KT 9999 FEW030 SCT090 QNH3003INS BECMG 0616/0617 20010G15KT 9999 VCTS SCT030CB QNH3002INS TX29/0519Z TN25/0610Z
KTPA 
5nm NW 
052102Z 0521/0624 22011KT P6SM VCSH SCT035 SCT120 OVC200 TEMPO 0521/0524 6SM -SHRA FM060000 23005KT P6SM VCSH SCT025 SCT080 BKN150 FM060600 VRB03KT P6SM FEW020 SCT130 BKN250 FM061400 18006KT P6SM SCT025 SCT130 BKN250 FM061700 22008KT P6SM VCTS SCT035CB SCT130 BKN250
KPIE 
12nm W 
052303Z 0523/0618 18010KT P6SM VCSH SCT030 OVC200 TEMPO 0523/0524 VRB15G32KT 2SM SHRA BKN030 FM060000 23006KT P6SM VCSH SCT025 SCT080 BKN150 FM060600 16004KT P6SM FEW020 SCT130 BKN250 FM061400 18007KT P6SM SCT025 SCT130 BKN250 FM061700 20008KT P6SM VCTS SCT035CB SCT130 BKN250
NOTAMs
Click for the latest NOTAMs
NOTAMs are issued by the DoD/FAA and will open in a separate window not controlled by AirNav.

 

 
 

FBO, Fuel Providers, and Aircraft Ground Support

  
 Business Name 
 
 Contact 
 
 Services / Description 
 
Fuel Prices
 
Comments
  
 Atlas Aviation
813-251-1752
[web site]
[email]
Aviation fuel, Aircraft parking (ramp or tiedown), Hangars, Passenger terminal and lounge, Flight training, Aircraft rental, Aerial tours / aerial sightseeing, ...
 
Courtesy car   Hertz  
 
More info about Atlas Aviation
Titan
100LL Jet A
FS $5.99 $5.59 
 Updated 05-Aug-2021
 
   4 read write
FS=Full service
Update Fuel Prices
 

Would you like to see your business listed on this page?

 If your business provides an interesting product or service to pilots, flight crews, aircraft, or users of the Peter O Knight Airport, you should consider listing it here.  To start the listing process, click on the button below
 
Add a business
 

Other Pages about Peter O Knight Airport

Update a link
 
Copyright © AirNav, LLC. All rights reserved. Privacy Policy  Contact